START_TIME,STEP,MOV.,P1,t_acc.,E44,t_acc.,A3,t_acc.,P10,t_acc.
1986-01-26 15:00:24.520 ,0,0,0.,1.2,0.,1.2,0.,1.2,0.,1.2
1986-01-26 15:00:25.720 ,0,0,0.,1.2,0.,1.2,0.,1.2,0.,1.2
1986-01-26 15:00:26.920 ,0,0,0.,1.2,0.,1.2,0.,1.2,0.,1.2
1986-01-26 15:00:28.120 ,0,0,0.,1.2,0.,1.2,0.,1.2,0.,1.2
1986-01-26 15:00:29.320 ,0,0,0.,1.2,0.,1.2,0.,1.2,0.,1.2
1986-01-26 15:00:30.520 ,0,0,0.,1.2,0.,1.2,0.,1.2,0.,1.2
1986-01-26 15:00:31.720 ,0,0,0.,1.2,0.,1.2,0.,1.2,0.,1.2
1986-01-26 15:00:32.920 ,0,0,0.,1.2,0.,1.2,0.,1.2,0.,1.2
1986-01-26 15:00:34.120 ,0,0,0.,1.2,0.,1.2,0.,1.2,0.,1.2
1986-01-26 15:00:35.320 ,0,0,0.,1.2,0.,1.2,0.,1.2,0.,1.2
1986-01-26 15:00:36.520 ,0,0,0.,1.2,0.,1.2,0.,1.2,0.,1.2
1986-01-26 15:00:37.720 ,0,0,0.,1.2,0.,1.2,0.,1.2,0.,1.2
1986-01-26 15:00:38.920 ,0,0,0.,1.2,0.,1.2,0.,1.2,0.,1.2
1986-01-26 15:00:40.120 ,0,0,0.,1.2,0.,1.2,0.,1.2,1.,1.2
1986-01-26 15:00:41.320 ,0,0,0.,1.2,0.,1.2,0.,1.2,0.,1.2
1986-01-26 15:00:42.520 ,0,0,0.,1.2,0.,1.2,0.,1.2,0.,1.2
1986-01-26 15:00:43.720 ,0,0,0.,1.2,0.,1.2,0.,1.2,0.,1.2
1986-01-26 15:00:44.920 ,0,0,0.,1.2,0.,1.2,0.,1.2,0.,1.2
1986-01-26 15:00:46.120 ,0,0,0.,1.2,0.,1.2,0.,1.2,0.,1.2
1986-01-26 15:00:47.320 ,0,0,0.,1.2,0.,1.2,0.,1.2,0.,1.2
1986-01-26 15:00:48.520 ,1,0,0.,1.2,0.,1.2,0.,1.2,0.,1.2
1986-01-26 15:00:49.720 ,1,0,0.,1.2,0.,1.2,0.,1.2,0.,1.2
1986-01-26 15:00:50.920 ,1,0,0.,1.2,0.,1.2,0.,1.2,1.,1.2
1986-01-26 15:00:52.120 ,1,0,1.,1.2,0.,1.2,0.,1.2,0.,1.2
1986-01-26 15:00:53.320 ,1,0,0.,1.2,0.,1.2,0.,1.2,0.,1.2
1986-01-26 15:00:54.520 ,1,0,0.,1.2,0.,1.2,0.,1.2,0.,1.2
1986-01-26 15:00:55.720 ,1,0,0.,1.2,0.,1.2,0.,1.2,0.,1.2
1986-01-26 15:00:56.920 ,1,0,0.,1.2,0.,1.2,0.,1.2,0.,1.2
1986-01-26 15:00:58.120 ,1,0,0.,1.2,0.,1.2,0.,1.2,0.,1.2
1986-01-26 15:00:59.320 ,1,0,0.,1.2,0.,1.2,0.,1.2,0.,1.2
1986-01-26 15:01:00.520 ,1,0,0.,1.2,0.,1.2,0.,1.2,0.,1.2
1986-01-26 15:01:01.720 ,1,0,0.,1.2,0.,1.2,0.,1.2,0.,1.2
1986-01-26 15:01:02.920 ,1,0,0.,1.2,0.,1.2,0.,1.2,0.,1.2
1986-01-26 15:01:04.120 ,1,0,0.,1.2,0.,1.2,0.,1.2,0.,1.2
1986-01-26 15:01:05.320 ,1,0,0.,1.2,0.,1.2,0.,1.2,0.,1.2
1986-01-26 15:01:06.520 ,1,0,0.,1.2,0.,1.2,0.,1.2,0.,1.2
1986-01-26 15:01:07.720 ,1,0,0.,1.2,0.,1.2,0.,1.2,0.,1.2
1986-01-26 15:01:08.920 ,1,0,0.,1.2,0.,1.2,0.,1.2,0.,1.2
1986-01-26 15:01:10.120 ,1,0,0.,1.2,0.,1.2,0.,1.2,0.,1.2
1986-01-26 15:01:11.320 ,1,0,0.,1.2,0.,1.2,0.,1.2,0.,1.2
1986-01-26 15:01:12.520 ,1,0,0.,1.2,0.,1.2,0.,1.2,0.,1.2
1986-01-26 15:01:13.720 ,1,0,0.,1.2,0.,1.2,0.,1.2,0.,1.2
1986-01-26 15:01:14.920 ,1,0,0.,1.2,0.,1.2,0.,1.2,0.,1.2
1986-01-26 15:01:16.120 ,1,0,0.,1.2,0.,1.2,0.,1.2,0.,1.2
1986-01-26 15:01:17.320 ,1,0,0.,1.2,0.,1.2,0.,1.2,0.,1.2
1986-01-26 15:01:18.520 ,1,0,0.,1.2,0.,1.2,0.,1.2,1.,1.2
1986-01-26 15:01:19.720 ,1,0,0.,1.2,0.,1.2,0.,1.2,0.,1.2
1986-01-26 15:01:20.920 ,1,0,0.,1.2,0.,1.2,0.,1.2,0.,1.2
1986-01-26 15:01:22.120 ,1,0,0.,1.2,0.,1.2,0.,1.2,0.,1.2
1986-01-26 15:01:23.320 ,1,0,0.,1.2,0.,1.2,0.,1.2,0.,1.2
1986-01-26 15:01:24.520 ,1,0,0.,1.2,0.,1.2,0.,1.2,0.,1.2
1986-01-26 15:01:25.720 ,1,0,0.,1.2,0.,1.2,0.,1.2,0.,1.2
1986-01-26 15:01:26.920 ,1,0,0.,1.2,0.,1.2,0.,1.2,0.,1.2
1986-01-26 15:01:28.120 ,1,0,0.,1.2,0.,1.2,0.,1.2,0.,1.2
1986-01-26 15:01:29.320 ,1,0,0.,1.2,0.,1.2,0.,1.2,0.,1.2
1986-01-26 15:01:30.520 ,1,0,0.,1.2,0.,1.2,0.,1.2,0.,1.2
1986-01-26 15:01:31.720 ,1,0,0.,1.2,0.,1.2,0.,1.2,0.,1.2
1986-01-26 15:01:32.920 ,1,0,0.,1.2,0.,1.2,0.,1.2,0.,1.2
1986-01-26 15:01:34.120 ,1,0,0.,1.2,0.,1.2,0.,1.2,0.,1.2
1986-01-26 15:01:35.320 ,1,0,0.,1.2,0.,1.2,0.,1.2,0.,1.2
1986-01-26 15:01:36.520 ,2,0,0.,1.2,0.,1.2,0.,1.2,0.,1.2
1986-01-26 15:01:37.720 ,2,0,0.,1.2,0.,1.2,0.,1.2,0.,1.2
1986-01-26 15:01:38.920 ,2,0,0.,1.2,0.,1.2,0.,1.2,0.,1.2
1986-01-26 15:01:40.120 ,2,0,0.,1.2,0.,1.2,0.,1.2,0.,1.2
1986-01-26 15:01:41.320 ,2,0,0.,1.2,0.,1.2,0.,1.2,0.,1.2
1986-01-26 15:01:42.520 ,2,0,0.,1.2,0.,1.2,0.,1.2,0.,1.2
1986-01-26 15:01:43.720 ,2,0,0.,1.2,0.,1.2,0.,1.2,0.,1.2
1986-01-26 15:01:44.920 ,2,0,0.,1.2,0.,1.2,0.,1.2,0.,1.2
1986-01-26 15:01:46.120 ,2,0,0.,1.2,0.,1.2,0.,1.2,0.,1.2
1986-01-26 15:01:47.320 ,2,0,0.,1.2,0.,1.2,0.,1.2,0.,1.2
1986-01-26 15:01:48.520 ,2,0,0.,1.2,0.,1.2,0.,1.2,0.,1.2
1986-01-26 15:01:49.720 ,2,0,0.,1.2,0.,1.2,0.,1.2,0.,1.2
1986-01-26 15:01:50.920 ,2,0,0.,1.2,0.,1.2,0.,1.2,0.,1.2
1986-01-26 15:01:52.120 ,2,0,0.,1.2,0.,1.2,0.,1.2,0.,1.2
1986-01-26 15:01:53.320 ,2,0,0.,1.2,0.,1.2,0.,1.2,0.,1.2
1986-01-26 15:01:54.520 ,2,0,0.,1.2,0.,1.2,0.,1.2,0.,1.2
1986-01-26 15:01:55.720 ,2,0,0.,1.2,0.,1.2,0.,1.2,0.,1.2
1986-01-26 15:01:56.920 ,2,0,0.,1.2,0.,1.2,0.,1.2,1.,1.2
1986-01-26 15:01:58.120 ,2,0,0.,1.2,0.,1.2,0.,1.2,0.,1.2
1986-01-26 15:01:59.320 ,2,0,0.,1.2,0.,1.2,0.,1.2,0.,1.2
1986-01-26 15:02:00.520 ,2,0,0.,1.2,0.,1.2,0.,1.2,0.,1.2
1986-01-26 15:02:01.720 ,2,0,0.,1.2,0.,1.2,0.,1.2,0.,1.2
1986-01-26 15:02:02.920 ,2,0,0.,1.2,0.,1.2,0.,1.2,0.,1.2
1986-01-26 15:02:04.120 ,2,0,0.,1.2,0.,1.2,0.,1.2,0.,1.2
1986-01-26 15:02:05.320 ,2,0,0.,1.2,0.,1.2,0.,1.2,0.,1.2
1986-01-26 15:02:06.520 ,2,0,0.,1.2,0.,1.2,0.,1.2,0.,1.2
1986-01-26 15:02:07.720 ,2,0,0.,1.2,0.,1.2,0.,1.2,0.,1.2
1986-01-26 15:02:08.920 ,2,0,0.,1.2,0.,1.2,0.,1.2,0.,1.2
1986-01-26 15:02:10.120 ,2,0,0.,1.2,0.,1.2,0.,1.2,0.,1.2
1986-01-26 15:02:11.320 ,2,0,0.,1.2,0.,1.2,0.,1.2,0.,1.2
1986-01-26 15:02:12.520 ,2,0,0.,1.2,0.,1.2,0.,1.2,0.,1.2
1986-01-26 15:02:13.720 ,2,0,0.,1.2,0.,1.2,0.,1.2,1.,1.2
1986-01-26 15:02:14.920 ,2,0,0.,1.2,0.,1.2,0.,1.2,0.,1.2
1986-01-26 15:02:16.120 ,2,0,0.,1.2,0.,1.2,0.,1.2,0.,1.2
1986-01-26 15:02:17.320 ,2,0,0.,1.2,0.,1.2,0.,1.2,1.,1.2
1986-01-26 15:02:18.520 ,2,0,0.,1.2,0.,1.2,0.,1.2,0.,1.2
1986-01-26 15:02:19.720 ,2,0,0.,1.2,0.,1.2,0.,1.2,0.,1.2
1986-01-26 15:02:20.920 ,2,0,0.,1.2,0.,1.2,0.,1.2,0.,1.2
1986-01-26 15:02:22.120 ,2,0,1.,1.2,0.,1.2,0.,1.2,0.,1.2
1986-01-26 15:02:23.320 ,2,0,0.,1.2,0.,1.2,0.,1.2,0.,1.2
1986-01-26 15:02:24.520 ,3,0,0.,1.2,0.,1.2,0.,1.2,0.,1.2
1986-01-26 15:02:25.720 ,3,0,0.,1.2,0.,1.2,0.,1.2,0.,1.2
1986-01-26 15:02:26.920 ,3,0,0.,1.2,0.,1.2,0.,1.2,0.,1.2
1986-01-26 15:02:28.120 ,3,0,0.,1.2,0.,1.2,0.,1.2,0.,1.2
1986-01-26 15:02:29.320 ,3,0,0.,1.2,0.,1.2,0.,1.2,0.,1.2
1986-01-26 15:02:30.520 ,3,0,0.,1.2,0.,1.2,0.,1.2,1.,1.2
1986-01-26 15:02:31.720 ,3,0,0.,1.2,0.,1.2,0.,1.2,0.,1.2
1986-01-26 15:02:32.920 ,3,0,0.,1.2,0.,1.2,0.,1.2,0.,1.2
1986-01-26 15:02:34.120 ,3,0,0.,1.2,0.,1.2,0.,1.2,0.,1.2
1986-01-26 15:02:35.320 ,3,0,0.,1.2,0.,1.2,0.,1.2,0.,1.2
1986-01-26 15:02:36.520 ,3,0,0.,1.2,0.,1.2,0.,1.2,0.,1.2
1986-01-26 15:02:37.720 ,3,0,0.,1.2,0.,1.2,0.,1.2,0.,1.2
1986-01-26 15:02:38.920 ,3,0,0.,1.2,0.,1.2,0.,1.2,0.,1.2
1986-01-26 15:02:40.120 ,3,0,0.,1.2,0.,1.2,0.,1.2,0.,1.2
1986-01-26 15:02:41.320 ,3,0,0.,1.2,0.,1.2,0.,1.2,0.,1.2
1986-01-26 15:02:42.520 ,3,0,0.,1.2,0.,1.2,0.,1.2,0.,1.2
1986-01-26 15:02:43.720 ,3,0,0.,1.2,0.,1.2,0.,1.2,0.,1.2
1986-01-26 15:02:44.920 ,3,0,0.,1.2,0.,1.2,0.,1.2,0.,1.2
1986-01-26 15:02:46.120 ,3,0,0.,1.2,0.,1.2,0.,1.2,0.,1.2
1986-01-26 15:02:47.320 ,3,0,0.,1.2,0.,1.2,0.,1.2,0.,1.2
1986-01-26 15:02:48.520 ,3,0,0.,1.2,0.,1.2,0.,1.2,1.,1.2
1986-01-26 15:02:49.720 ,3,0,0.,1.2,0.,1.2,0.,1.2,0.,1.2
1986-01-26 15:02:50.920 ,3,0,0.,1.2,0.,1.2,0.,1.2,0.,1.2
1986-01-26 15:02:52.120 ,3,0,0.,1.2,0.,1.2,0.,1.2,0.,1.2
1986-01-26 15:02:53.320 ,3,0,0.,1.2,0.,1.2,0.,1.2,0.,1.2
1986-01-26 15:02:54.520 ,3,0,0.,1.2,0.,1.2,0.,1.2,0.,1.2
1986-01-26 15:02:55.720 ,3,0,0.,1.2,0.,1.2,0.,1.2,0.,1.2
1986-01-26 15:02:56.920 ,3,0,0.,1.2,0.,1.2,0.,1.2,0.,1.2
1986-01-26 15:02:58.120 ,3,0,0.,1.2,0.,1.2,0.,1.2,0.,1.2
1986-01-26 15:02:59.320 ,3,0,0.,1.2,0.,1.2,0.,1.2,1.,1.2
1986-01-26 15:03:00.520 ,3,0,0.,1.2,0.,1.2,0.,1.2,0.,1.2
1986-01-26 15:03:01.720 ,3,0,0.,1.2,0.,1.2,0.,1.2,0.,1.2
1986-01-26 15:03:02.920 ,3,0,0.,1.2,0.,1.2,0.,1.2,0.,1.2
1986-01-26 15:03:04.120 ,3,0,0.,1.2,0.,1.2,0.,1.2,0.,1.2
1986-01-26 15:03:05.320 ,3,0,0.,1.2,0.,1.2,0.,1.2,0.,1.2
1986-01-26 15:03:06.520 ,3,0,0.,1.2,0.,1.2,0.,1.2,0.,1.2
1986-01-26 15:03:07.720 ,3,0,0.,1.2,0.,1.2,0.,1.2,0.,1.2
1986-01-26 15:03:08.920 ,3,0,0.,1.2,0.,1.2,0.,1.2,0.,1.2
1986-01-26 15:03:10.120 ,3,0,0.,1.2,0.,1.2,0.,1.2,0.,1.2
1986-01-26 15:03:11.320 ,3,0,0.,1.2,0.,1.2,0.,1.2,0.,1.2
1986-01-26 15:03:12.520 ,4,0,0.,1.2,0.,1.2,0.,1.2,0.,1.2
1986-01-26 15:03:13.720 ,4,0,0.,1.2,0.,1.2,0.,1.2,0.,1.2
1986-01-26 15:03:14.920 ,4,0,0.,1.2,0.,1.2,0.,1.2,0.,1.2
1986-01-26 15:03:16.120 ,4,0,0.,1.2,0.,1.2,0.,1.2,0.,1.2
1986-01-26 15:03:17.320 ,4,0,0.,1.2,0.,1.2,0.,1.2,0.,1.2
1986-01-26 15:03:18.520 ,4,0,0.,1.2,0.,1.2,0.,1.2,0.,1.2
1986-01-26 15:03:19.720 ,4,0,0.,1.2,0.,1.2,0.,1.2,0.,1.2
1986-01-26 15:03:20.920 ,4,0,0.,1.2,0.,1.2,0.,1.2,0.,1.2
1986-01-26 15:03:22.120 ,4,0,0.,1.2,0.,1.2,0.,1.2,0.,1.2
1986-01-26 15:03:23.320 ,4,0,0.,1.2,0.,1.2,0.,1.2,0.,1.2
1986-01-26 15:03:24.520 ,4,0,0.,1.2,0.,1.2,0.,1.2,0.,1.2
1986-01-26 15:03:25.720 ,4,0,0.,1.2,0.,1.2,0.,1.2,0.,1.2
1986-01-26 15:03:26.920 ,4,0,0.,1.2,0.,1.2,0.,1.2,0.,1.2
1986-01-26 15:03:28.120 ,4,0,0.,1.2,0.,1.2,0.,1.2,0.,1.2
1986-01-26 15:03:29.320 ,4,0,0.,1.2,0.,1.2,0.,1.2,0.,1.2
1986-01-26 15:03:30.520 ,4,0,0.,1.2,0.,1.2,0.,1.2,0.,1.2
1986-01-26 15:03:31.720 ,4,0,0.,1.2,0.,1.2,0.,1.2,0.,1.2
1986-01-26 15:03:32.920 ,4,0,0.,1.2,0.,1.2,0.,1.2,0.,1.2
1986-01-26 15:03:34.120 ,4,0,0.,1.2,0.,1.2,0.,1.2,0.,1.2
1986-01-26 15:03:35.320 ,4,0,0.,1.2,0.,1.2,0.,1.2,0.,1.2
1986-01-26 15:03:36.520 ,4,0,0.,1.2,0.,1.2,0.,1.2,0.,1.2
1986-01-26 15:03:37.720 ,4,0,0.,1.2,0.,1.2,0.,1.2,0.,1.2
1986-01-26 15:03:38.920 ,4,0,0.,1.2,0.,1.2,0.,1.2,0.,1.2
1986-01-26 15:03:40.120 ,4,0,0.,1.2,0.,1.2,0.,1.2,0.,1.2
1986-01-26 15:03:41.320 ,4,0,0.,1.2,0.,1.2,0.,1.2,0.,1.2
1986-01-26 15:03:42.520 ,4,0,0.,1.2,0.,1.2,0.,1.2,1.,1.2
1986-01-26 15:03:43.720 ,4,0,0.,1.2,0.,1.2,0.,1.2,0.,1.2
1986-01-26 15:03:44.920 ,4,0,0.,1.2,0.,1.2,0.,1.2,0.,1.2
1986-01-26 15:03:46.120 ,4,0,0.,1.2,0.,1.2,0.,1.2,0.,1.2
1986-01-26 15:03:47.320 ,4,0,0.,1.2,0.,1.2,0.,1.2,0.,1.2
1986-01-26 15:03:48.520 ,4,0,0.,1.2,0.,1.2,0.,1.2,0.,1.2
1986-01-26 15:03:49.720 ,4,0,0.,1.2,0.,1.2,0.,1.2,1.,1.2
1986-01-26 15:03:50.920 ,4,0,0.,1.2,0.,1.2,0.,1.2,0.,1.2
1986-01-26 15:03:52.120 ,4,0,0.,1.2,0.,1.2,0.,1.2,0.,1.2
1986-01-26 15:03:53.320 ,4,0,0.,1.2,0.,1.2,0.,1.2,0.,1.2
1986-01-26 15:03:54.520 ,4,0,0.,1.2,0.,1.2,0.,1.2,0.,1.2
1986-01-26 15:03:55.720 ,4,0,0.,1.2,0.,1.2,0.,1.2,0.,1.2
1986-01-26 15:03:56.920 ,4,0,0.,1.2,0.,1.2,0.,1.2,1.,1.2
1986-01-26 15:03:58.120 ,4,0,0.,1.2,0.,1.2,0.,1.2,0.,1.2
1986-01-26 15:03:59.320 ,4,0,0.,1.2,0.,1.2,0.,1.2,0.,1.2
1986-01-26 15:04:00.520 ,5,0,0.,1.2,0.,1.2,0.,1.2,0.,1.2
1986-01-26 15:04:01.720 ,5,0,0.,1.2,0.,1.2,0.,1.2,0.,1.2
1986-01-26 15:04:02.920 ,5,0,0.,1.2,0.,1.2,1.,1.2,0.,1.2
1986-01-26 15:04:04.120 ,5,0,0.,1.2,0.,1.2,0.,1.2,0.,1.2
1986-01-26 15:04:05.320 ,5,0,0.,1.2,0.,1.2,0.,1.2,0.,1.2
1986-01-26 15:04:06.520 ,5,0,0.,1.2,0.,1.2,0.,1.2,0.,1.2
1986-01-26 15:04:07.720 ,5,0,0.,1.2,0.,1.2,0.,1.2,0.,1.2
1986-01-26 15:04:08.920 ,5,0,0.,1.2,0.,1.2,0.,1.2,0.,1.2
1986-01-26 15:04:10.120 ,5,0,0.,1.2,0.,1.2,0.,1.2,0.,1.2
1986-01-26 15:04:11.320 ,5,0,0.,1.2,0.,1.2,0.,1.2,0.,1.2
1986-01-26 15:04:12.520 ,5,0,0.,1.2,0.,1.2,0.,1.2,0.,1.2
1986-01-26 15:04:13.720 ,5,0,0.,1.2,0.,1.2,0.,1.2,0.,1.2
1986-01-26 15:04:14.920 ,5,0,0.,1.2,0.,1.2,0.,1.2,1.,1.2
1986-01-26 15:04:16.120 ,5,0,0.,1.2,0.,1.2,0.,1.2,0.,1.2
1986-01-26 15:04:17.320 ,5,0,0.,1.2,0.,1.2,0.,1.2,0.,1.2
1986-01-26 15:04:18.520 ,5,0,0.,1.2,0.,1.2,0.,1.2,0.,1.2
1986-01-26 15:04:19.720 ,5,0,0.,1.2,0.,1.2,0.,1.2,0.,1.2
1986-01-26 15:04:20.920 ,5,0,0.,1.2,0.,1.2,0.,1.2,0.,1.2
1986-01-26 15:04:22.120 ,5,0,0.,1.2,0.,1.2,0.,1.2,0.,1.2
1986-01-26 15:04:23.320 ,5,0,0.,1.2,0.,1.2,0.,1.2,0.,1.2
1986-01-26 15:04:24.520 ,5,0,0.,1.2,0.,1.2,0.,1.2,0.,1.2
1986-01-26 15:04:25.720 ,5,0,0.,1.2,0.,1.2,0.,1.2,0.,1.2
1986-01-26 15:04:26.920 ,5,0,0.,1.2,0.,1.2,0.,1.2,0.,1.2
1986-01-26 15:04:28.120 ,5,0,0.,1.2,0.,1.2,0.,1.2,1.,1.2
1986-01-26 15:04:29.320 ,5,0,0.,1.2,0.,1.2,0.,1.2,1.,1.2
1986-01-26 15:04:30.520 ,5,0,0.,1.2,0.,1.2,0.,1.2,0.,1.2
1986-01-26 15:04:31.720 ,5,0,0.,1.2,0.,1.2,0.,1.2,0.,1.2
1986-01-26 15:04:32.920 ,5,0,0.,1.2,0.,1.2,0.,1.2,0.,1.2
1986-01-26 15:04:34.120 ,5,0,0.,1.2,0.,1.2,0.,1.2,0.,1.2
1986-01-26 15:04:35.320 ,5,0,0.,1.2,0.,1.2,0.,1.2,0.,1.2
1986-01-26 15:04:36.520 ,5,0,0.,1.2,0.,1.2,0.,1.2,0.,1.2
1986-01-26 15:04:37.720 ,5,0,0.,1.2,0.,1.2,0.,1.2,0.,1.2
1986-01-26 15:04:38.920 ,5,0,0.,1.2,0.,1.2,0.,1.2,0.,1.2
1986-01-26 15:04:40.120 ,5,0,0.,1.2,0.,1.2,0.,1.2,1.,1.2
1986-01-26 15:04:41.320 ,5,0,0.,1.2,0.,1.2,0.,1.2,0.,1.2
1986-01-26 15:04:42.520 ,5,0,0.,1.2,0.,1.2,0.,1.2,0.,1.2
1986-01-26 15:04:43.720 ,5,0,0.,1.2,0.,1.2,0.,1.2,0.,1.2
1986-01-26 15:04:44.920 ,5,0,0.,1.2,0.,1.2,0.,1.2,0.,1.2
1986-01-26 15:04:46.120 ,5,0,0.,1.2,0.,1.2,0.,1.2,0.,1.2
1986-01-26 15:04:47.320 ,5,0,0.,1.2,0.,1.2,0.,1.2,0.,1.2
1986-01-26 15:04:48.520 ,6,0,0.,1.2,0.,1.2,0.,1.2,0.,1.2
1986-01-26 15:04:49.720 ,6,0,0.,1.2,0.,1.2,0.,1.2,0.,1.2
1986-01-26 15:04:50.920 ,6,0,0.,1.2,0.,1.2,0.,1.2,0.,1.2
1986-01-26 15:04:52.120 ,6,0,0.,1.2,0.,1.2,0.,1.2,0.,1.2
1986-01-26 15:04:53.320 ,6,0,0.,1.2,0.,1.2,0.,1.2,0.,1.2
1986-01-26 15:04:54.520 ,6,0,0.,1.2,0.,1.2,0.,1.2,0.,1.2
1986-01-26 15:04:55.720 ,6,0,0.,1.2,0.,1.2,0.,1.2,0.,1.2
1986-01-26 15:04:56.920 ,6,0,0.,1.2,0.,1.2,0.,1.2,0.,1.2
1986-01-26 15:04:58.120 ,6,0,0.,1.2,0.,1.2,0.,1.2,0.,1.2
1986-01-26 15:04:59.320 ,6,0,0.,1.2,0.,1.2,0.,1.2,0.,1.2
1986-01-26 15:05:00.520 ,6,0,0.,1.2,0.,1.2,0.,1.2,0.,1.2
1986-01-26 15:05:01.720 ,6,0,0.,1.2,0.,1.2,0.,1.2,0.,1.2
1986-01-26 15:05:02.920 ,6,0,0.,1.2,0.,1.2,0.,1.2,0.,1.2
1986-01-26 15:05:04.120 ,6,0,0.,1.2,0.,1.2,0.,1.2,0.,1.2
1986-01-26 15:05:05.320 ,6,0,0.,1.2,0.,1.2,0.,1.2,0.,1.2
1986-01-26 15:05:06.520 ,6,0,0.,1.2,0.,1.2,0.,1.2,0.,1.2
1986-01-26 15:05:07.720 ,6,0,0.,1.2,0.,1.2,0.,1.2,0.,1.2
1986-01-26 15:05:08.920 ,6,0,0.,1.2,0.,1.2,0.,1.2,0.,1.2
1986-01-26 15:05:10.120 ,6,0,0.,1.2,0.,1.2,0.,1.2,0.,1.2
1986-01-26 15:05:11.320 ,6,0,0.,1.2,0.,1.2,0.,1.2,0.,1.2
1986-01-26 15:05:12.520 ,6,0,0.,1.2,0.,1.2,0.,1.2,0.,1.2
1986-01-26 15:05:13.720 ,6,0,0.,1.2,0.,1.2,0.,1.2,0.,1.2
1986-01-26 15:05:14.920 ,6,0,0.,1.2,0.,1.2,0.,1.2,0.,1.2
1986-01-26 15:05:16.120 ,6,0,0.,1.2,0.,1.2,0.,1.2,0.,1.2
1986-01-26 15:05:17.320 ,6,0,0.,1.2,0.,1.2,0.,1.2,0.,1.2
1986-01-26 15:05:18.520 ,6,0,0.,1.2,0.,1.2,0.,1.2,0.,1.2
1986-01-26 15:05:19.720 ,6,0,0.,1.2,0.,1.2,0.,1.2,0.,1.2
1986-01-26 15:05:20.920 ,6,0,0.,1.2,0.,1.2,0.,1.2,0.,1.2
1986-01-26 15:05:22.120 ,6,0,0.,1.2,0.,1.2,0.,1.2,0.,1.2
1986-01-26 15:05:23.320 ,6,0,0.,1.2,0.,1.2,0.,1.2,0.,1.2
1986-01-26 15:05:24.520 ,6,0,0.,1.2,0.,1.2,0.,1.2,0.,1.2
1986-01-26 15:05:25.720 ,6,0,0.,1.2,0.,1.2,0.,1.2,0.,1.2
1986-01-26 15:05:26.920 ,6,0,1.,1.2,0.,1.2,0.,1.2,0.,1.2
1986-01-26 15:05:28.120 ,6,0,0.,1.2,0.,1.2,0.,1.2,0.,1.2
1986-01-26 15:05:29.320 ,6,0,0.,1.2,0.,1.2,0.,1.2,0.,1.2
1986-01-26 15:05:30.520 ,6,0,0.,1.2,0.,1.2,0.,1.2,0.,1.2
1986-01-26 15:05:31.720 ,6,0,0.,1.2,0.,1.2,0.,1.2,0.,1.2
1986-01-26 15:05:32.920 ,6,0,0.,1.2,0.,1.2,0.,1.2,0.,1.2
1986-01-26 15:05:34.120 ,6,0,0.,1.2,0.,1.2,0.,1.2,0.,1.2
1986-01-26 15:05:35.320 ,6,0,0.,1.2,0.,1.2,0.,1.2,1.,1.2
1986-01-26 15:05:36.520 ,7,0,0.,1.2,0.,1.2,0.,1.2,0.,1.2
1986-01-26 15:05:37.720 ,7,0,0.,1.2,0.,1.2,0.,1.2,0.,1.2
1986-01-26 15:05:38.920 ,7,0,0.,1.2,0.,1.2,0.,1.2,0.,1.2
1986-01-26 15:05:40.120 ,7,0,0.,1.2,0.,1.2,0.,1.2,1.,1.2
1986-01-26 15:05:41.320 ,7,0,0.,1.2,0.,1.2,0.,1.2,0.,1.2
1986-01-26 15:05:42.520 ,7,0,0.,1.2,0.,1.2,1.,1.2,0.,1.2
1986-01-26 15:05:43.720 ,7,0,0.,1.2,0.,1.2,9.,1.2,0.,1.2
1986-01-26 15:05:44.920 ,7,0,0.,1.2,0.,1.2,10.,1.2,0.,1.2
1986-01-26 15:05:46.120 ,7,0,0.,1.2,0.,1.2,11.,1.2,0.,1.2
1986-01-26 15:05:47.320 ,7,0,0.,1.2,0.,1.2,3.,1.2,0.,1.2
1986-01-26 15:05:48.520 ,7,0,0.,1.2,0.,1.2,4.,1.2,0.,1.2
1986-01-26 15:05:49.720 ,7,0,0.,1.2,0.,1.2,11.,1.2,0.,1.2
1986-01-26 15:05:50.920 ,7,0,0.,1.2,0.,1.2,9.,1.2,0.,1.2
1986-01-26 15:05:52.120 ,7,0,0.,1.2,0.,1.2,4.,1.2,0.,1.2
1986-01-26 15:05:53.320 ,7,0,0.,1.2,0.,1.2,6.,1.2,0.,1.2
1986-01-26 15:05:54.520 ,7,0,0.,1.2,0.,1.2,6.,1.2,0.,1.2
1986-01-26 15:05:55.720 ,7,0,0.,1.2,0.,1.2,8.,1.2,0.,1.2
1986-01-26 15:05:56.920 ,7,0,0.,1.2,0.,1.2,2.,1.2,0.,1.2
1986-01-26 15:05:58.120 ,7,0,0.,1.2,0.,1.2,3.,1.2,0.,1.2
1986-01-26 15:05:59.320 ,7,0,0.,1.2,0.,1.2,6.,1.2,0.,1.2
1986-01-26 15:06:00.520 ,7,0,0.,1.2,0.,1.2,9.,1.2,0.,1.2
1986-01-26 15:06:01.720 ,7,0,0.,1.2,0.,1.2,9.,1.2,0.,1.2
1986-01-26 15:06:02.920 ,7,0,0.,1.2,0.,1.2,4.,1.2,0.,1.2
1986-01-26 15:06:04.120 ,7,0,0.,1.2,0.,1.2,6.,1.2,0.,1.2
1986-01-26 15:06:05.320 ,7,0,0.,1.2,0.,1.2,8.,1.2,0.,1.2
1986-01-26 15:06:06.520 ,7,0,0.,1.2,0.,1.2,4.,1.2,0.,1.2
1986-01-26 15:06:07.720 ,7,0,0.,1.2,0.,1.2,9.,1.2,1.,1.2
1986-01-26 15:06:08.920 ,7,0,0.,1.2,0.,1.2,7.,1.2,0.,1.2
1986-01-26 15:06:10.120 ,7,0,0.,1.2,0.,1.2,10.,1.2,0.,1.2
1986-01-26 15:06:11.320 ,7,0,0.,1.2,0.,1.2,9.,1.2,0.,1.2
1986-01-26 15:06:12.520 ,7,0,0.,1.2,0.,1.2,9.,1.2,0.,1.2
1986-01-26 15:06:13.720 ,7,0,0.,1.2,0.,1.2,6.,1.2,0.,1.2
1986-01-26 15:06:14.920 ,7,0,0.,1.2,0.,1.2,7.,1.2,0.,1.2
1986-01-26 15:06:16.120 ,7,0,0.,1.2,0.,1.2,6.,1.2,0.,1.2
1986-01-26 15:06:17.320 ,7,0,0.,1.2,0.,1.2,7.,1.2,0.,1.2
1986-01-26 15:06:18.520 ,7,0,0.,1.2,0.,1.2,5.,1.2,0.,1.2
1986-01-26 15:06:19.720 ,7,0,0.,1.2,0.,1.2,7.,1.2,0.,1.2
1986-01-26 15:06:20.920 ,7,0,0.,1.2,0.,1.2,10.,1.2,1.,1.2
1986-01-26 15:06:22.120 ,7,0,0.,1.2,0.,1.2,8.,1.2,0.,1.2
1986-01-26 15:06:23.320 ,7,0,0.,1.2,0.,1.2,8.,1.2,0.,1.2
1986-01-26 15:06:24.520 ,7,0,0.,1.2,0.,1.2,6.,1.2,0.,1.2
1986-01-26 15:06:25.720 ,7,0,0.,1.2,0.,1.2,8.,1.2,0.,1.2
1986-01-26 15:06:26.920 ,7,0,0.,1.2,0.,1.2,6.,1.2,0.,1.2
1986-01-26 15:06:28.120 ,7,0,0.,1.2,0.,1.2,5.,1.2,0.,1.2
1986-01-26 15:06:29.320 ,7,0,0.,1.2,0.,1.2,3.,1.2,0.,1.2
1986-01-26 15:06:30.520 ,7,0,0.,1.2,0.,1.2,3.,1.2,0.,1.2
1986-01-26 15:06:31.720 ,7,0,0.,1.2,0.,1.2,9.,1.2,0.,1.2
1986-01-26 15:06:32.920 ,7,0,0.,1.2,0.,1.2,5.,1.2,0.,1.2
1986-01-26 15:06:34.120 ,7,0,0.,1.2,0.,1.2,2.,1.2,0.,1.2
1986-01-26 15:06:35.320 ,7,0,0.,1.2,0.,1.2,8.,1.2,0.,1.2
1986-01-26 15:06:36.520 ,7,0,0.,1.2,0.,1.2,7.,1.2,0.,1.2
1986-01-26 15:06:37.720 ,7,0,0.,1.2,0.,1.2,10.,1.2,0.,1.2
1986-01-26 15:06:38.920 ,7,0,0.,1.2,0.,1.2,5.,1.2,0.,1.2
1986-01-26 15:06:40.120 ,7,0,0.,1.2,0.,1.2,3.,1.2,0.,1.2
1986-01-26 15:06:41.320 ,7,0,0.,1.2,0.,1.2,6.,1.2,1.,1.2
1986-01-26 15:06:42.520 ,7,0,0.,1.2,0.,1.2,7.,1.2,0.,1.2
1986-01-26 15:06:43.720 ,7,0,0.,1.2,0.,1.2,3.,1.2,0.,1.2
1986-01-26 15:06:44.920 ,7,0,0.,1.2,0.,1.2,3.,1.2,0.,1.2
1986-01-26 15:06:46.120 ,7,0,0.,1.2,0.,1.2,5.,1.2,0.,1.2
1986-01-26 15:06:47.320 ,7,0,0.,1.2,0.,1.2,7.,1.2,0.,1.2
1986-01-26 15:06:48.520 ,7,0,0.,1.2,0.,1.2,5.,1.2,0.,1.2
1986-01-26 15:06:49.720 ,7,0,0.,1.2,0.,1.2,3.,1.2,0.,1.2
1986-01-26 15:06:50.920 ,7,0,0.,1.2,0.,1.2,6.,1.2,0.,1.2
1986-01-26 15:06:52.120 ,7,0,0.,1.2,0.,1.2,4.,1.2,0.,1.2
1986-01-26 15:06:53.320 ,7,0,0.,1.2,0.,1.2,5.,1.2,0.,1.2
1986-01-26 15:06:54.520 ,7,0,0.,1.2,0.,1.2,3.,1.2,0.,1.2
1986-01-26 15:06:55.720 ,7,0,0.,1.2,0.,1.2,5.,1.2,0.,1.2
1986-01-26 15:06:56.920 ,7,0,0.,1.2,0.,1.2,6.,1.2,0.,1.2
1986-01-26 15:06:58.120 ,7,0,0.,1.2,0.,1.2,9.,1.2,0.,1.2
1986-01-26 15:06:59.320 ,7,0,0.,1.2,0.,1.2,6.,1.2,0.,1.2
1986-01-26 15:07:00.520 ,7,0,0.,1.2,0.,1.2,6.,1.2,0.,1.2
1986-01-26 15:07:01.720 ,7,0,0.,1.2,0.,1.2,6.,1.2,0.,1.2
1986-01-26 15:07:02.920 ,7,0,0.,1.2,0.,1.2,7.,1.2,0.,1.2
1986-01-26 15:07:04.120 ,7,0,0.,1.2,0.,1.2,6.,1.2,0.,1.2
1986-01-26 15:07:05.320 ,7,0,0.,1.2,0.,1.2,6.,1.2,0.,1.2
1986-01-26 15:07:06.520 ,7,0,0.,1.2,0.,1.2,7.,1.2,0.,1.2
1986-01-26 15:07:07.720 ,7,0,0.,1.2,0.,1.2,4.,1.2,0.,1.2
1986-01-26 15:07:08.920 ,7,0,0.,1.2,0.,1.2,8.,1.2,0.,1.2
1986-01-26 15:07:10.120 ,7,0,0.,1.2,0.,1.2,4.,1.2,0.,1.2
1986-01-26 15:07:11.320 ,7,0,0.,1.2,0.,1.2,10.,1.2,0.,1.2
1986-01-26 15:07:12.520 ,6,0,0.,1.2,0.,1.2,7.,1.2,0.,1.2
1986-01-26 15:07:13.720 ,6,0,0.,1.2,0.,1.2,4.,1.2,0.,1.2
1986-01-26 15:07:14.920 ,6,0,0.,1.2,0.,1.2,8.,1.2,0.,1.2
1986-01-26 15:07:16.120 ,6,0,0.,1.2,0.,1.2,5.,1.2,0.,1.2
1986-01-26 15:07:17.320 ,6,0,0.,1.2,0.,1.2,6.,1.2,0.,1.2
1986-01-26 15:07:18.520 ,6,0,0.,1.2,0.,1.2,2.,1.2,1.,1.2
1986-01-26 15:07:19.720 ,6,0,0.,1.2,0.,1.2,0.,1.2,0.,1.2
1986-01-26 15:07:20.920 ,6,0,0.,1.2,0.,1.2,0.,1.2,0.,1.2
1986-01-26 15:07:22.120 ,6,0,0.,1.2,0.,1.2,0.,1.2,0.,1.2
1986-01-26 15:07:23.320 ,6,0,0.,1.2,0.,1.2,0.,1.2,0.,1.2
1986-01-26 15:07:24.520 ,6,0,0.,1.2,0.,1.2,0.,1.2,0.,1.2
1986-01-26 15:07:25.720 ,6,0,0.,1.2,0.,1.2,0.,1.2,0.,1.2
1986-01-26 15:07:26.920 ,6,0,0.,1.2,0.,1.2,0.,1.2,0.,1.2
1986-01-26 15:07:28.120 ,6,0,0.,1.2,0.,1.2,0.,1.2,0.,1.2
1986-01-26 15:07:29.320 ,6,0,0.,1.2,0.,1.2,0.,1.2,0.,1.2
1986-01-26 15:07:30.520 ,6,0,0.,1.2,0.,1.2,0.,1.2,0.,1.2
1986-01-26 15:07:31.720 ,6,0,0.,1.2,0.,1.2,0.,1.2,0.,1.2
1986-01-26 15:07:32.920 ,6,0,0.,1.2,0.,1.2,0.,1.2,0.,1.2
1986-01-26 15:07:34.120 ,6,0,0.,1.2,0.,1.2,0.,1.2,0.,1.2
1986-01-26 15:07:35.320 ,6,0,0.,1.2,0.,1.2,0.,1.2,0.,1.2
1986-01-26 15:07:36.520 ,0,0,0.,1.2,0.,1.2,0.,1.2,0.,1.2
1986-01-26 15:07:37.720 ,0,0,0.,1.2,0.,1.2,0.,1.2,0.,1.2
1986-01-26 15:07:38.920 ,0,0,0.,1.2,0.,1.2,0.,1.2,0.,1.2
1986-01-26 15:07:40.120 ,0,0,0.,1.2,0.,1.2,0.,1.2,0.,1.2
1986-01-26 15:07:41.320 ,0,0,0.,1.2,0.,1.2,0.,1.2,0.,1.2
1986-01-26 15:07:42.520 ,0,0,0.,1.2,0.,1.2,0.,1.2,0.,1.2
1986-01-26 15:07:43.720 ,0,0,0.,1.2,0.,1.2,0.,1.2,0.,1.2
1986-01-26 15:07:44.920 ,0,0,0.,1.2,0.,1.2,0.,1.2,0.,1.2
1986-01-26 15:07:46.120 ,0,0,0.,1.2,0.,1.2,0.,1.2,0.,1.2
1986-01-26 15:07:47.320 ,0,0,0.,1.2,0.,1.2,0.,1.2,0.,1.2
1986-01-26 15:07:48.520 ,0,0,,0,,0,,0,,0
1986-01-26 15:07:49.720 ,0,0,0.,1.2,0.,1.2,0.,1.2,0.,1.2
1986-01-26 15:07:50.920 ,0,0,,0,,0,,0,,0
1986-01-26 15:07:52.120 ,0,0,,0,,0,,0,,0
1986-01-26 15:07:53.320 ,0,0,11534336.,1.2,0.,1.2,0.,1.2,0.,1.2
1986-01-26 15:07:54.520 ,0,0,,0,,0,,0,,0
1986-01-26 15:07:55.720 ,0,0,,0,,0,,0,,0
1986-01-26 15:07:56.920 ,0,0,,0,,0,,0,,0
1986-01-26 15:07:58.120 ,0,0,,0,,0,,0,,0
1986-01-26 15:07:59.320 ,0,0,,0,,0,,0,,0
1986-01-26 15:12:11.320 ,0,0,,0,,0,,0,,0
1986-01-26 15:12:12.520 ,0,0,,0,,0,,0,,0
1986-01-26 15:12:13.720 ,0,0,,0,,0,,0,,0
1986-01-26 15:12:14.920 ,0,0,,0,,0,,0,,0
1986-01-26 15:12:16.120 ,0,0,,0,,0,,0,,0
1986-01-26 15:12:17.320 ,0,0,,0,,0,,0,,0
1986-01-26 15:12:18.520 ,0,0,,0,,0,,0,,0
1986-01-26 15:12:19.720 ,0,0,,0,,0,,0,,0
1986-01-26 15:12:20.920 ,0,0,,0,,0,,0,,0
1986-01-26 15:12:22.120 ,0,0,0.,1.2,0.,1.2,0.,1.2,0.,1.2
1986-01-26 15:12:23.320 ,0,0,0.,1.2,0.,1.2,0.,1.2,0.,1.2
1986-01-26 15:12:24.520 ,0,0,0.,1.2,0.,1.2,0.,1.2,0.,1.2
1986-01-26 15:12:25.720 ,0,0,0.,1.2,0.,1.2,0.,1.2,0.,1.2
1986-01-26 15:12:26.920 ,0,0,0.,1.2,0.,1.2,0.,1.2,0.,1.2
1986-01-26 15:12:28.120 ,0,0,0.,1.2,0.,1.2,0.,1.2,0.,1.2
1986-01-26 15:12:29.320 ,0,0,0.,1.2,0.,1.2,0.,1.2,1.,1.2
1986-01-26 15:12:30.520 ,0,0,0.,1.2,0.,1.2,0.,1.2,0.,1.2
1986-01-26 15:12:31.720 ,0,0,0.,1.2,0.,1.2,0.,1.2,0.,1.2
1986-01-26 15:12:32.920 ,0,0,0.,1.2,0.,1.2,0.,1.2,0.,1.2
1986-01-26 15:12:34.120 ,0,0,0.,1.2,0.,1.2,0.,1.2,0.,1.2
1986-01-26 15:12:24.520 ,0,0,0.,1.2,0.,1.2,0.,1.2,0.,1.2
1986-01-26 15:12:25.720 ,0,0,0.,1.2,0.,1.2,0.,1.2,0.,1.2
1986-01-26 15:12:26.920 ,0,0,0.,1.2,0.,1.2,0.,1.2,0.,1.2
1986-01-26 15:12:28.120 ,0,0,0.,1.2,0.,1.2,0.,1.2,0.,1.2
1986-01-26 15:12:29.320 ,0,0,0.,1.2,0.,1.2,0.,1.2,0.,1.2
1986-01-26 15:12:30.520 ,0,0,0.,1.2,0.,1.2,0.,1.2,0.,1.2
1986-01-26 15:12:31.720 ,0,0,0.,1.2,0.,1.2,0.,1.2,0.,1.2
1986-01-26 15:12:32.920 ,0,0,0.,1.2,0.,1.2,0.,1.2,0.,1.2
1986-01-26 15:12:34.120 ,0,0,0.,1.2,0.,1.2,0.,1.2,1.,1.2
1986-01-26 15:12:35.320 ,0,0,0.,1.2,0.,1.2,0.,1.2,0.,1.2
1986-01-26 15:12:36.520 ,0,0,0.,1.2,0.,1.2,0.,1.2,0.,1.2
1986-01-26 15:12:37.720 ,0,0,0.,1.2,0.,1.2,0.,1.2,0.,1.2
1986-01-26 15:12:38.920 ,0,0,0.,1.2,0.,1.2,0.,1.2,1.,1.2
1986-01-26 15:12:40.120 ,0,0,0.,1.2,0.,1.2,0.,1.2,0.,1.2
1986-01-26 15:12:41.320 ,0,0,0.,1.2,0.,1.2,0.,1.2,0.,1.2
1986-01-26 15:12:42.520 ,0,0,0.,1.2,0.,1.2,0.,1.2,0.,1.2
1986-01-26 15:12:43.720 ,0,0,0.,1.2,0.,1.2,0.,1.2,0.,1.2